Location: Bjelajci
(45.0103°N, 16.1758°E)
Time: 19:59:36
(UTC+00:00)

Meteor 1-11 Rocket - Pass Details

Date: 14 July 2020
Orbit: 831 x 915 km, 81.2° (Epoch: 05 August)

Event Time Altitude Azimuth Distance (km) Brightness Sun altitude
Exits shadow 02:04:15 15° 228° (SW) 2,098 5.1 -11.4°
Maximum altitude 02:08:17 36° 289° (WNW) 1,292 4.5 -10.9°
Drops below altitude 10° 02:13:22 10° 355° (N) 2,452 6.7 -10.3°
Sets 02:15:59 0° 4° (N) 3,394 7.7 -10.0°
